Regional Weather Roundup
Issued by NWS Spokane, WA

Home | Current Version | Previous Version | Text Only | Print | Product List | Glossary On
Versions: 1 2 3 4 5 6 7 8 9 10 11 12 13 14 15 16 17 18 19 20 21 22 23 24 25 26 27 28 29 30 31 32 33 34 35 36 37 38 39 40 41 42 43 44 45 46 47 48 49 50
000
NZUS01 KOTX 230505
RWROTX

Eastern Washington/Northern Idaho Roundup
National Weather Service, Spokane WA
1000 PM PDT SUN OCT 22 2017

Note: "fair" indicated few or no clouds below 12,000 feet with no
significant weather and/or obstructions to visibility.

...Northeast Washington and Northern Idaho Panhandle...

CITY           SKY/WX    TMP DP  RH WIND       PRES   REMARKS
Spokane Intl   CLOUDY    44  37  76 W9        30.36R
Spokane Downto CLOUDY    50  36  58 W9        30.37R
Coeur d Alene  CLOUDY    43  35  73 S10       30.35R
Deer Park      CLOUDY    46  35  65 SW9       30.35R
Sandpoint      MOCLDY    46  32  57 SW5       30.32R

...Southeast Washington and southern Idaho Panhandle...

CITY           SKY/WX    TMP DP  RH WIND       PRES   REMARKS
Walla Walla    CLOUDY    53  42  66 S10       30.44R
Pullman/Moscow CLOUDY    48  39  71 SW14      30.40R
Lewiston       CLOUDY    52  39  61 S7        30.39S
Lowell           N/A     46  46 100 CALM      30.45R
Grangeville    FAIR      46  36  66 SW15G21   30.40F

...Columbia Basin...

CITY           SKY/WX    TMP DP  RH WIND       PRES   REMARKS
Ephrata        CLOUDY    47  32  56 NW5       30.39R
Moses Lake     CLOUDY    46  37  71 W9        30.40R
Pasco          CLOUDY    50  40  68 NW3       30.44R
Richland       CLOUDY    50  42  74 CALM      30.44R
Hermiston      CLOUDY    52  44  74 S12       30.44R
Pendleton      CLOUDY    50  40  68 SW8       30.45R

...East Slopes Cascades...

CITY           SKY/WX    TMP DP  RH WIND       PRES   REMARKS
The Dalles     PTCLDY    47  45  93 SW3       30.45R
Yakima         MOCLDY    51  39  63 NW6       30.42R
Ellensburg     CLOUDY    49  41  74 NW10      30.42R
Stampede Pass  CLOUDY    40  38  93 VRB3      30.40R
Wenatchee      MOCLDY    44  35  70 N5        30.40R
Omak           CLOUDY    48  33  56 SW8       30.33R
Sunnyside      MOCLDY    42  38  84 N5        30.43R

...Southern British Columbia...

CITY           SKY/WX    TMP DP  RH WIND       PRES   REMARKS

...Western Montana...

CITY           SKY/WX    TMP DP  RH WIND       PRES   REMARKS
Kalispell      PTCLDY    41  33  73 SW7       30.28R
Libby            N/A     46  34  61 S3        30.29R
Missoula       LGT RAIN  43  38  82 MISG      30.36R

...Neighboring Cities...

CITY           SKY/WX    TMP DP  RH WIND       PRES   REMARKS
Seattle        MOCLDY    52  48  86 S8        30.44R
Portland       PTCLDY    50  48  93 CALM      30.47R
Boise          PTCLDY    51  46  83 NW3       30.44R
Great Falls    CLEAR     45  22  40 W20G28    30.14R



USA.gov is the U.S. government's official web portal to all federal, state and local government web resources and services.